Location: Columbia
(38.9520°N, 92.3340°W)
Time: 05:35:44
(UTC-05:00)

Cosmos 2219 Rocket - Visible Passes

Search period start: 25 September 2016 00:00
Search period end: 05 October 2016 00:00
Orbit: 827 x 848 km, 71.0° (Epoch: 24 September)

Date Brightness Start Highest point End Pass type
(mag) Time Alt. Az. Time Alt. Az. Time Alt. Az.
25 Sep 4.1 03:41:08 10° N 03:45:53 27° ENE 03:50:38 10° ESE visible
25 Sep 2.5 05:24:38 10° NW 05:29:59 43° WSW 05:35:18 10° S visible
25 Sep 4.9 20:15:33 10° W 20:19:32 19° NW 20:23:33 10° N visible
26 Sep 4.2 03:24:53 10° N 03:29:31 25° NE 03:34:06 10° ESE visible
26 Sep 2.3 05:08:15 10° NW 05:13:40 47° WSW 05:19:04 10° S visible
26 Sep 4.8 19:58:59 10° WSW 20:03:08 21° NW 20:07:20 10° N visible
27 Sep 4.8 03:08:38 10° N 03:09:24 13° N 03:09:24 13° N visible
27 Sep 4.3 05:02:32 11° S 05:02:32 11° S 05:02:48 10° S visible
27 Sep 4.7 19:42:25 10° WSW 19:46:45 22° NW 19:51:06 10° N visible
28 Sep 4.6 19:25:53 10° WSW 19:30:21 24° NW 19:34:52 10° N visible
